Regional Weather Roundup
Issued by NWS Sterling, VA

Home | Current Version | Previous Version | Text Only | Print | Product List | Glossary Off
Versions: 1 2 3 4 5 6 7 8 9 10 11 12 13 14 15 16 17 18 19 20 21 22 23 24 25 26 27

000
ASUS41 KLWX 211110
RWRLWX

REGIONAL WEATHER ROUNDUP
NATIONAL WEATHER SERVICE BALTIMORE MD/WASHINGTON DC
600 AM EST SAT JAN 21 2017

Note: "FAIR" indicates few or no clouds below 12,000 feet
with no significant weather and/or obstructions to visibility.
 TC=TEMPERATURE CELSIUS

 * =Non NWS site. Station does not report precipitation (e.g. rain,
    snow, etc.), thunder, or fog.

DCZ001-MDZ009-015-VAZ040>042-051-053>054-211200-
WASHINGTON METRO

CITY           SKY/WX    TMP DP  RH WIND       PRES   REMARKS
WASHINGTON NAT CLOUDY    48  48 100 S5        29.92R
DULLES         CLOUDY    47  46  97 S5        29.90S FOG
ANDREWS AFB    CLOUDY    46  46 100 CALM      29.90S FOG
FT BELVOIR     CLOUDY    46  46 100 CALM      29.91R FOG
QUANTICO       FOG       46  46 100 CALM      29.92R VSB 1/2
COLLEGE PARK*  CLOUDY    45  45 100 CALM      29.91S
LEESBURG*      CLOUDY    48  48 100 CALM      29.91S FOG
GAITHERSBURG*  CLOUDY    46  43  87 CALM      29.94R VSB 1/2

$$

MDZ006>007-011-014-211200-
BALTIMORE METRO

CITY           SKY/WX    TMP DP  RH WIND       PRES   REMARKS
BWI AIRPORT    DRZL/FOG  46  46 100 CALM      29.90S VSB 3/4
MD SCIENCE CTR   N/A     46  43  89 MISG      29.92R
MARTIN STATE   FOG       45  45 100 CALM      29.93  VSB 1/2
ANNAPOLIS      FOG       43  41  93 SE3       29.91S VSB 1/4
FORT MEADE*    CLOUDY    45  45 100 CALM      29.93S

$$

MDZ012-015-019>023-211200-
MARYLAND EASTERN SHORE

CITY           SKY/WX    TMP DP  RH WIND       PRES   REMARKS
OCEAN CITY     CLOUDY    46  46 100 CALM      29.93S FOG
SALISBURY      CLOUDY    46  46 100 CALM      29.92S FOG
BAY BRIDGE AP* CLOUDY    45  45 100 CALM      29.91F FOG
CAMBRIDGE*     CLOUDY    45  45 100 CALM      29.91S
EASTON*        CLOUDY    47  46  95 CALM      29.95S FOG

$$

MDZ017>025-211200-
SOUTHERN MARYLAND

CITY           SKY/WX    TMP DP  RH WIND       PRES   REMARKS
PATUXENT RIVER CLOUDY    46  46 100 S5        29.91S FOG
ST INIGOES     FOG       46  46 100 S3        29.91S VSB 1
LEONARDTOWN*   CLOUDY    45  45 100 CALM      29.93R VSB 1/2

$$

MDZ003>005-211200-
NORTH CENTRAL MARYLAND

CITY           SKY/WX    TMP DP  RH WIND       PRES   REMARKS
FREDERICK*     FOG       45  45 100 CALM      29.93S VSB 1/2
HAGERSTOWN APT FOG       42  41  96 CALM      29.88S VSB 1/4
WESTMINSTER*   FOG       43  43 100 CALM      29.89S VSB 1/4

$$

MDZ501>502-211200-
WESTERN MARYLAND

CITY           SKY/WX    TMP DP  RH WIND       PRES   REMARKS
OAKLAND*         N/A     43  43 100 S7        29.86R
CUMBERLAND*    CLOUDY    41  41 100 CALM      29.92S VSB 1/2

$$

VAZ025>031-211200-
SHENANDOAH VALLEY

CITY           SKY/WX    TMP DP  RH WIND       PRES   REMARKS
WINCHESTER*    FOG       39  37  93 CALM      29.89S VSB 1/4
FRONT ROYAL*   CLOUDY    37  37 100 CALM      29.88S VSB<1/4
LURAY*         FOG       43  43 100 CALM      29.88S VSB 1/4
NEW MARKET*    CLOUDY    44  42  96 SW3       29.88R VSB 1/4
STAUNTON*      FOG       44  44 100 CALM      29.90S VSB 1/4
WAYNESBORO*    CLOUDY    40  39  97 CALM      29.88S VSB 1/2

$$

WVZ021-048>050-054>055-211200-
EASTERN WEST VIRGINIA PANHANDLE

CITY           SKY/WX    TMP DP  RH WIND       PRES   REMARKS
MARTINSBURG    FOG       42  41  96 CALM      29.89S VSB 1/4
PETERSBURG*    FOG       37  37  99 CALM      29.89S VSB 3/4

$$

VAZ036>039-050-211200-
CENTRAL FOOTHILLS

CITY           SKY/WX    TMP DP  RH WIND       PRES   REMARKS
CHARLOTTESVILL FOG       48  47  96 CALM      29.89R VSB 1/4
CULPEPER*      CLOUDY    48  48 100 CALM      29.92R FOG
ORANGE*          N/A     46  46 100 CALM      29.91S FOG
GORDONSVILLE*  FOG       47  47 100 CALM      29.89S VSB 3/4
WARRENTON*     FOG       48  46  91 CALM      29.90R VSB 1

$$

VAZ055>057-211200-
NORTH AND CENTRAL PIEDMONT

CITY           SKY/WX    TMP DP  RH WIND       PRES   REMARKS
FREDERICKSBRG* CLOUDY    49  49 100 CALM      29.90S
STAFFORD*      CLOUDY    47  47 100 CALM      29.95R FOG

$$

NCZ024-NYZ072-PAZ021-071-VAZ022-071-211200-
OTHER REGIONAL OBSERVATIONS

CITY           SKY/WX    TMP DP  RH WIND       PRES   REMARKS
NEW YORK CITY  CLOUDY    42  41  96 VRB3      29.90F FOG
PHILADELPHIA   CLOUDY    42  41  96 CALM      29.92S FOG
PITTSBURGH     FOG       42  42 100 S3        29.81R VSB 1/2
ROANOKE        FOG       45  45 100 N3        29.92S VSB 1/4
RICHMOND       FOG       47  47 100 SW3       29.91S VSB 1/2
RALEIGH        FOG       51  51 100 CALM      29.92R VSB 1/8

$$

ANZ530>537-211200-
MARINE OBSERVATIONS

STATION/POSITION TIME  TEMP    WIND        PRES
                       AIR SEA DIR/SP/G
                 (UTC) (F)     (DEG/KT/KT) (MB)
THOMAS PT LIGHT  1100   42 39  190/  4/  5   N/A
BALT KEY BRIDGE  1048   42     120/  2/  2 1012.8F
COVE POINT       1048   45     200/  5/  6 1013.4R
LEWISETTA        1048   46 44  210/  4/  4 1012.7S
SOLOMONS ISLAND  0954   45 42  220/  5/  6   N/A
PINEY POINT      1048          200/  5/  6   N/A

$$





USA.gov is the U.S. government's official web portal to all federal, state and local government web resources and services.